| time (UTC) | temp F | wind direction | speed MPH | gust MPH | rain 1hr in | rain 24hr in | rain mn in | humidity % | barometer mb |
| 20260902191531 | 61 | 39 | 0.0 | 4.0 | 0.00 | 0.00 | 0.00 | 72 | 1010.4 |
| 20260902184607 | 62 | 149 | 0.0 | 3.0 | 0.00 | 0.00 | 0.00 | 68 | 1010.3 |
| 20260902183032 | 61 | 319 | 1.0 | 5.0 | 0.00 | 0.00 | 0.00 | 69 | 1010.2 |
| 20260902181531 | 61 | 37 | 2.0 | 5.0 | 0.00 | 0.00 | 0.00 | 70 | 1010.2 |
| 20260902180030 | 61 | 40 | 2.0 | 7.0 | 0.00 | 0.00 | 0.00 | 70 | 1010.3 |
| 20260902174530 | 61 | 70 | 1.0 | 5.0 | 0.00 | 0.00 | 0.00 | 69 | 1010.3 |
| 20260902173031 | 61 | 44 | 1.0 | 6.0 | 0.00 | 0.00 | 0.00 | 68 | 1010.4 |
| 20260902164529 | 59 | 133 | 1.0 | 6.0 | 0.00 | 0.00 | 0.00 | 76 | 1010.8 |
| 20260902161531 | 58 | 155 | 1.0 | 5.0 | 0.00 | 0.00 | 0.00 | 77 | 1011.0 |
| 20260902160030 | 58 | 144 | 1.0 | 4.0 | 0.00 | 0.00 | 0.00 | 77 | 1011.2 |
| 20260902154608 | 56 | 181 | 0.0 | 3.0 | 0.00 | 0.00 | 0.00 | 80 | 1011.2 |
| 20260902153030 | 56 | 185 | 1.0 | 5.0 | 0.00 | 0.00 | 0.00 | 81 | 1011.4 |
| 20260902151531 | 55 | 154 | 1.0 | 4.0 | 0.00 | 0.00 | 0.00 | 81 | 1011.4 |
| 20260902150029 | 55 | 312 | 0.0 | 3.0 | 0.00 | 0.00 | 0.00 | 81 | 1011.5 |
| 20260902143029 | 54 | 96 | 0.0 | 3.0 | 0.00 | 0.00 | 0.00 | 82 | 1011.9 |
| 20260902141530 | 54 | 149 | 0.0 | 2.0 | 0.00 | 0.00 | 0.00 | 82 | 1011.9 |
| 20260902140032 | 53 | 158 | 0.0 | 3.0 | 0.00 | 0.00 | 0.00 | 82 | 1011.8 |
| 20260902134530 | 54 | 124 | 2.0 | 6.0 | 0.00 | 0.00 | 0.00 | 81 | 1011.8 |
| 20260902133032 | 53 | 316 | 5.0 | 12.0 | 0.00 | 0.00 | 0.00 | 83 | 1011.8 |
| 20260902130147 | 52 | 282 | 4.0 | 8.0 | 0.00 | 0.00 | 0.00 | 84 | 1012.0 |
| 20260902124539 | 52 | 281 | 5.0 | 8.0 | 0.00 | 0.00 | 0.00 | 82 | 1012.0 |
| 20260902123033 | 53 | 307 | 5.0 | 10.0 | 0.00 | 0.00 | 0.00 | 80 | 1012.1 |
| 20260902121531 | 53 | 306 | 3.0 | 6.0 | 0.00 | 0.00 | 0.00 | 79 | 1012.2 |
| 20260902120029 | 53 | 305 | 3.0 | 7.0 | 0.00 | 0.00 | 0.00 | 81 | 1012.1 |
| 20260902114646 | 53 | 311 | 5.0 | 8.0 | 0.00 | 0.00 | 0.00 | 81 | 1012.4 |
| 20260902111603 | 54 | 308 | 5.0 | 13.0 | 0.00 | 0.00 | 0.00 | 80 | 1012.3 |
| 20260902110030 | 54 | 297 | 5.0 | 12.0 | 0.00 | 0.00 | 0.00 | 80 | 1012.3 |
| 20260902104606 | 54 | 299 | 5.0 | 10.0 | 0.00 | 0.00 | 0.00 | 80 | 1012.5 |
| 20260902100031 | 55 | 309 | 5.0 | 14.0 | 0.00 | 0.00 | 0.00 | 80 | 1012.8 |
| 20260902094606 | 55 | 313 | 6.0 | 14.0 | 0.00 | 0.00 | 0.00 | 81 | 1012.9 |
| 20260902093031 | 55 | 328 | 5.0 | 10.0 | 0.00 | 0.00 | 0.00 | 81 | 1013.1 |
| 20260902090108 | 55 | 313 | 5.0 | 10.0 | 0.00 | 0.00 | 0.00 | 80 | 1013.0 |
| 20260902083033 | 54 | 277 | 3.0 | 6.0 | 0.00 | 0.00 | 0.00 | 81 | 1013.1 |
| 20260902081530 | 53 | 286 | 3.0 | 7.0 | 0.00 | 0.00 | 0.00 | 81 | 1013.0 |
| 20260902080028 | 54 | 276 | 2.0 | 5.0 | 0.00 | 0.00 | 0.00 | 80 | 1013.2 |
| 20260902074529 | 55 | 275 | 3.0 | 7.0 | 0.00 | 0.00 | 0.00 | 79 | 1013.2 |
| 20260902073030 | 56 | 290 | 4.0 | 7.0 | 0.00 | 0.00 | 0.00 | 78 | 1013.2 |
| 20260902071530 | 57 | 293 | 4.0 | 9.0 | 0.00 | 0.00 | 0.00 | 77 | 1013.4 |
| 20260902070030 | 57 | 287 | 4.0 | 11.0 | 0.00 | 0.00 | 0.00 | 75 | 1013.7 |
| 20260902064610 | 58 | 296 | 4.0 | 10.0 | 0.00 | 0.00 | 0.00 | 75 | 1013.9 |
| 20260902063103 | 58 | 286 | 4.0 | 9.0 | 0.00 | 0.00 | 0.00 | 76 | 1014.0 |
| 20260902061532 | 58 | 308 | 5.0 | 10.0 | 0.00 | 0.00 | 0.00 | 75 | 1014.0 |
| 20260902054530 | 58 | 320 | 5.0 | 11.0 | 0.00 | 0.00 | 0.00 | 74 | 1014.0 |
| 20260902053146 | 58 | 302 | 4.0 | 10.0 | 0.00 | 0.00 | 0.00 | 74 | 1014.0 |
| 20260902051529 | 58 | 300 | 5.0 | 11.0 | 0.00 | 0.00 | 0.00 | 74 | 1013.7 |
| 20260902050029 | 58 | 299 | 5.0 | 8.0 | 0.00 | 0.00 | 0.00 | 74 | 1013.7 |
| 20260902044530 | 58 | 293 | 4.0 | 8.0 | 0.00 | 0.00 | 0.00 | 73 | 1013.6 |
| 20260902043026 | 59 | 288 | 6.0 | 11.0 | 0.00 | 0.00 | 0.00 | 73 | 1013.4 |
| 20260902041530 | 58 | 290 | 5.0 | 13.0 | 0.00 | 0.00 | 0.00 | 73 | 1013.4 |
| 20260902040029 | 59 | 293 | 4.0 | 9.0 | 0.00 | 0.00 | 0.00 | 72 | 1013.2 |
| 20260902034530 | 59 | 306 | 3.0 | 10.0 | 0.00 | 0.00 | 0.00 | 72 | 1013.0 |
| 20260902033029 | 59 | 313 | 4.0 | 10.0 | 0.00 | 0.00 | 0.00 | 72 | 1012.9 |
| 20260902031603 | 59 | 306 | 3.0 | 8.0 | 0.00 | 0.00 | 0.00 | 72 | 1012.9 |
| 20260902030029 | 59 | 315 | 3.0 | 5.0 | 0.00 | 0.00 | 0.00 | 71 | 1013.1 |
| 20260902021531 | 60 | 269 | 5.0 | 11.0 | 0.00 | 0.00 | 0.00 | 69 | 1012.8 |
| 20260902020031 | 61 | 284 | 4.0 | 10.0 | 0.00 | 0.00 | 0.00 | 68 | 1012.7 |
| 20260902014529 | 61 | 323 | 3.0 | 11.0 | 0.00 | 0.00 | 0.00 | 67 | 1012.9 |
| 20260902004533 | 63 | 305 | 4.0 | 11.0 | 0.00 | 0.00 | 0.00 | 64 | 1012.5 |
| 20260902003029 | 64 | 280 | 6.0 | 17.0 | 0.00 | 0.00 | 0.00 | 64 | 1012.2 |
| 20260902000031 | 63 | 319 | 8.0 | 18.0 | 0.00 | 0.00 | 0.00 | 66 | 1012.2 |
| 20260901234645 | 62 | 317 | 9.0 | 18.0 | 0.00 | 0.00 | 0.00 | 67 | 1012.3 |
| 20260901231534 | 64 | 312 | 8.0 | 20.0 | 0.00 | 0.00 | 0.00 | 65 | 1012.2 |
| 20260901230030 | 65 | 293 | 8.0 | 18.0 | 0.00 | 0.00 | 0.00 | 63 | 1012.2 |
| 20260901224534 | 66 | 296 | 11.0 | 23.0 | 0.00 | 0.00 | 0.00 | 62 | 1012.1 |
| 20260901223029 | 66 | 298 | 11.0 | 24.0 | 0.00 | 0.00 | 0.00 | 61 | 1012.0 |
| 20260901221530 | 66 | 301 | 12.0 | 27.0 | 0.00 | 0.00 | 0.00 | 61 | 1011.8 |
| 20260901220030 | 67 | 301 | 12.0 | 27.0 | 0.00 | 0.00 | 0.00 | 60 | 1011.6 |
| 20260901214606 | 67 | 302 | 13.0 | 27.0 | 0.00 | 0.00 | 0.00 | 58 | 1011.5 |
| 20260901213029 | 68 | 289 | 11.0 | 25.0 | 0.00 | 0.00 | 0.00 | 57 | 1011.4 |
| 20260901211531 | 65 | 313 | 9.0 | 20.0 | 0.00 | 0.00 | 0.00 | 64 | 1011.4 |
| 20260901204532 | 63 | 328 | 14.0 | 28.0 | 0.00 | 0.00 | 0.00 | 66 | 1011.9 |
| 20260901203030 | 65 | 317 | 13.0 | 25.0 | 0.00 | 0.00 | 0.00 | 65 | 1012.1 |
| 20260901201531 | 64 | 307 | 12.0 | 26.0 | 0.00 | 0.00 | 0.00 | 66 | 1012.0 |
| 20260901200032 | 64 | 312 | 14.0 | 25.0 | 0.00 | 0.00 | 0.00 | 65 | 1012.1 |
| 20260901194535 | 66 | 316 | 12.0 | 24.0 | 0.00 | 0.00 | 0.00 | 64 | 1012.3 |